Location: Killam
(52.7910°N, 111.8608°W)
Time: 06:00:31
(UTC+00:00)

Transit 2A - Pass Details

Date: 24 February 2026
Orbit: 590 x 954 km, 66.7° (Epoch: 14 March)

Event Time Altitude Azimuth Distance (km) Brightness Sun altitude
Rises 04:57:38 0° 310° (NW) 3,537 10.4 -35.6°
Reaches altitude 10° 05:01:45 10° 284° (WNW) 2,519 9.3 -36.1°
Maximum altitude 05:04:07 13° 260° (W) 2,283 8.8 -36.4°
Enters shadow 05:05:39 11° 243° (WSW) 2,331 8.7 -36.6°
